METEOR 3-3

导读

METEOR 3-3属于苏联/俄罗斯第三代“流星”极轨气象卫星系列,1989年10月24日由独联体(CIS)发射升空。作为第三代极轨气象卫星,卫星运行于低地球轨道,主要承担气象观测、天气预报开发、气候变化研究及气象灾害预警任务,可监测云层分布、海面温度、大气湿度等气象要素,采集的数据为全球气象合作与研究提供了支撑。

基本信息
目录编号:
20305
目录名称:
METEOR 3-3
国际标识:
1989-086A
轨道中心:
EARTH
卫星名称:
METEOR 3-3
卫星全名:
--
卫星状态:
在轨 (已飞行13472 天)
发射日期:
1989-10-24 UTC
国别 :
俄罗斯(独联体) (CIS)
星等 :
--
该卫星已列入 空间交会检测服务 Space Conjunction Data Service (SCDS) ,当前飞行风险评估等级: 无高风险
轨道信息
数据来源 国际轨道数据 AOE轨道数据
星历时间 2026-09-11T20:49:38+0800
13小时前
查看轨道信息
2026-09-10T12:00:00+0800
1天前
查看轨道信息
半长轴 7621.837km 7621.825km
偏心率 0.0006139 0.0006238
轨道倾角 82.551° 82.551°
近地点辐角 320.929° 325.033°
升交点赤经 47.246° 48.192°
平近点角 105.285° 160.055°
近地点 1239.02km 1238.933km
远地点 1248.38km 1248.443km
周期 110.370分钟 110.369分钟
每日圈数 13.04708 13.047111
详细信息
使用方式:
暂无
2D轨道图
3D轨道图
轨道高度分析图
轨道倾角分析图
轨道综合分析图
查看轨道综合分析图
与全量物体交会距离演化趋势
与全量物体交会风险概率演化趋势